Temperature
11 11 11 11 11 11 11 11 11 11 11 11 11 11 11 11 11 11 11 11 11 11 11 11 11 10 10 10 10 10 10 10 10 10 10 10 10 10 10 10 10 10 10
11 11 11 11 11 11 11 11 11 11 11 11 11 11 11 11 11 10 10 10 10 10 10 10 10 10 10 10 10 10 10 10 10 9 9 9 9 10 10 10 10 10 10
11 11 11 11 11 11 11 11 11 11 11 10 10 10 10 10 10 10 10 10 10 10 10 10 10 10 10 10 10 9 9 9 9 9 8 8 8 9 9 9 9 9 9
11 11 11 11 11 11 11 11 10 10 10 10 10 10 10 10 10 10 10 10 9 9 9 9 9 9 9 9 9 9 9 9 9 8 8 8 7 7 8 8 9 9 9
11 11 11 11 11 11 10 10 10 10 10 10 9 9 9 9 9 9 9 9 9 9 9 9 9 9 9 9 8 8 8 8 8 8 8 7 7 7 7 7 8 8 8
11 11 11 11 10 10 10 10 10 10 10 9 9 9 9 9 9 9 9 9 9 9 8 8 8 8 8 8 8 8 8 8 8 7 7 7 7 7 6 6 7 7 8
10 11 11 11 10 10 10 10 10 10 9 9 9 8 8 8 8 8 8 8 8 8 8 8 8 8 8 7 7 7 7 7 7 7 7 7 6 6 6 6 6 6 7
10 10 10 10 10 10 10 10 10 9 9 9 8 8 8 8 8 8 8 8 8 8 7 7 7 7 7 7 7 7 7 7 7 7 6 6 6 6 6 5 5 5 5
10 10 10 10 10 10 10 9 9 9 9 8 8 8 8 8 7 7 7 7 7 7 7 7 7 7 7 7 7 7 7 6 6 6 6 6 6 6 6 5 5 5 5
9 10 10 10 9 9 9 9 9 9 8 8 8 8 8 7 7 7 7 7 7 7 6 6 6 6 6 6 6 6 6 6 6 6 6 6 6 5 5 5 5 5 4
9 9 9 9 9 9 9 9 9 8 8 8 7 7 7 7 7 7 7 7 7 6 6 6 6 6 6 6 6 6 6 5 5 5 5 5 5 5 5 5 4 4 4
9 9 9 9 9 8 8 8 8 8 8 8 7 7 7 7 7 7 7 7 6 6 6 6 6 6 5 5 5 5 5 5 5 5 5 5 5 4 4 4 4 4 4
9 9 9 8 8 8 8 8 8 8 8 7 7 7 7 7 7 7 6 6 6 6 6 5 5 5 5 5 5 5 5 5 5 4 4 4 4 4 4 4 4 4 3
8 8 8 8 8 8 8 8 7 7 7 7 7 7 7 7 6 6 6 6 6 5 5 5 5 5 5 5 5 5 4 4 4 4 4 4 4 3 3 3 3 3 3
8 8 8 8 7 7 7 7 7 7 7 7 7 7 6 6 6 6 6 5 5 5 5 5 5 5 5 4 4 4 4 4 4 4 4 3 3 3 3 3 2 2 2
7 7 7 7 7 7 7 7 7 7 6 6 6 6 6 6 6 5 5 5 5 5 5 4 4 4 4 4 4 4 4 3 3 3 3 3 3 3 2 2 2 2 2
7 7 7 7 7 6 6 6 6 6 6 6 6 6 6 5 5 5 5 5 4 4 4 4 4 4 4 4 3 3 3 3 3 3 3 3 2 2 2 2 2 2 1
6 6 6 6 6 6 6 6 6 6 5 5 5 5 5 5 5 5 5 4 4 4 4 4 4 4 4 3 3 3 3 3 3 3 2 2 2 2 1 1 1 1 1
6 6 6 5 5 5 5 5 5 5 5 5 5 5 5 4 4 4 4 4 4 4 3 3 3 3 3 3 3 2 2 2 2 2 2 2 1 1 1 1 1 1 1
5 5 5 5 5 5 4 5 5 5 5 5 4 4 4 4 4 4 4 3 3 3 3 3 3 3 3 3 2 2 2 2 2 2 2 1 1 1 1 0 0 0 1
5 5 4 4 4 4 4 4 4 4 4 4 4 4 4 3 3 3 3 3 3 3 3 2 2 2 2 2 2 2 1 1 1 1 1 1 1 0 0 0 0 0 -0
4 4 4 4 4 4 3 3 4 4 4 3 3 3 3 3 3 3 3 3 2 2 2 2 2 2 2 2 2 1 1 1 1 1 1 1 0 0 -0 -0 -0 -0 -1
4 3 3 3 3 3 3 3 3 3 3 3 3 3 3 3 3 2 2 2 2 2 2 2 2 2 2 1 1 1 1 0 0 0 0 0 -0 -0 -0 -0 -1 -1 -1
3 3 3 3 3 3 3 2 2 2 2 2 2 2 2 2 2 2 2 2 2 1 1 1 1 1 1 1 1 1 0 0 -0 -0 -0 -1 -1 -1 -1 -1 -1 -1 -1
2 2 2 2 2 2 2 2 2 2 2 2 2 2 2 2 2 2 2 1 1 1 1 1 1 0 1 1 0 -0 -0 -0 -0 -1 -1 -1 -1 -1 -1 -1 -1 -2 -2
2 2 2 2 2 2 2 2 2 1 1 1 2 1 1 1 1 1 1 1 1 1 1 0 0 0 0 -0 -0 -0 -1 -1 -1 -1 -1 -1 -1 -2 -2 -2 -2 -2 -2
Wind_Speed
2 2 2 2 2 2 2 2 2 2 3 2 2 2 2 2 2 3 5 6 6 6 5 4 4 4 2 3 3 2 2 2 2 2 3 3 2 1 1 1 1 1 2
2 2 2 2 2 1 1 1 1 2 2 1 1 0 0 1 1 2 4 5 5 5 4 4 3 3 3 3 3 3 2 2 2 1 2 3 3 2 2 2 1 1 1
5 4 3 3 2 2 2 2 1 1 2 2 2 2 2 2 2 2 2 4 5 4 4 3 3 3 2 3 3 3 2 2 2 1 0 1 3 4 3 2 2 2 1
3 3 3 3 3 3 2 1 1 2 1 2 2 1 0 1 1 1 2 3 4 4 4 3 3 2 2 2 3 2 2 2 2 2 1 2 2 2 4 3 1 2 2
4 4 4 4 3 2 2 2 2 1 1 1 1 1 0 1 1 2 2 3 3 4 4 3 2 2 2 2 2 3 2 2 2 2 2 2 2 2 3 5 4 3 2
3 3 2 2 2 1 2 2 2 1 1 1 0 1 2 2 2 2 2 2 2 2 3 3 2 2 2 2 2 2 2 2 2 2 2 2 2 2 3 4 5 4 3
2 2 1 2 2 2 2 2 2 1 1 1 1 2 2 2 3 3 3 3 2 2 3 3 2 2 2 2 2 2 2 2 2 2 2 3 3 3 3 4 4 4 3
1 2 2 2 2 2 2 2 2 3 2 2 3 2 2 2 3 3 3 3 2 3 3 3 3 3 3 3 2 1 2 2 2 3 3 3 3 3 3 3 3 4 4
2 2 2 1 2 2 2 3 4 4 3 3 3 3 3 3 4 4 3 3 3 3 3 3 3 3 3 3 2 2 2 2 2 3 3 3 3 3 3 3 3 4 5
2 2 2 2 2 3 3 2 3 4 4 3 3 3 4 4 4 3 4 4 4 3 3 3 3 3 3 3 2 2 2 2 3 2 3 3 3 3 3 3 3 4 4
3 2 2 2 2 2 2 2 3 4 4 4 4 4 4 4 4 4 4 4 4 4 4 4 4 4 4 3 3 3 3 3 4 3 3 4 3 3 3 3 3 3 3
2 2 2 2 2 3 3 3 3 4 5 4 4 4 4 4 4 5 5 4 5 5 5 4 4 4 4 4 4 4 4 4 4 4 4 4 3 3 3 3 3 3 4
3 3 3 3 3 3 3 4 4 4 4 4 4 5 5 5 5 6 5 5 5 5 5 4 5 5 5 5 4 5 5 5 5 5 5 5 4 4 4 4 4 3 3
3 3 3 4 4 4 4 4 5 4 4 4 4 6 6 6 6 6 6 6 5 6 6 6 6 6 6 5 5 5 5 5 5 5 5 5 5 5 5 4 4 4 3
4 4 4 4 5 5 5 5 5 5 4 4 5 7 6 6 5 6 6 6 6 6 6 6 6 6 5 5 6 5 6 5 5 5 5 5 6 7 6 5 4 4 4
5 5 5 5 6 6 6 6 6 6 4 5 7 6 5 5 6 6 6 6 6 6 6 6 7 7 6 9 10 7 5 5 6 6 6 6 6 7 8 8 7 6 5
6 6 5 5 6 6 6 6 6 6 5 6 7 6 6 6 7 6 6 6 7 6 6 7 7 8 9 11 11 11 6 6 6 6 6 5 5 7 5 6 7 7 7
6 6 5 5 6 5 6 6 6 6 6 7 7 7 6 7 6 6 7 7 6 6 6 7 7 8 9 12 12 11 6 6 6 7 7 6 6 6 6 4 4 4 4
6 6 6 5 5 6 6 6 7 6 7 8 8 7 6 7 7 7 8 7 6 6 6 6 7 8 9 11 12 10 5 5 7 6 6 7 7 9 9 5 5 5 4
5 5 5 5 6 7 5 6 7 7 8 9 8 7 6 7 8 8 8 6 5 7 6 6 7 8 8 11 11 10 4 5 6 5 6 9 9 10 9 6 5 6 5
6 6 6 6 7 6 5 6 8 9 9 8 8 7 7 7 8 7 6 6 6 6 6 7 7 7 9 10 12 11 6 6 6 6 5 6 10 11 11 9 6 8 5
7 6 6 7 7 6 5 7 9 9 8 7 7 7 7 6 6 6 6 5 5 6 6 6 7 6 7 9 10 12 11 9 7 7 6 6 10 10 10 8 8 9 6
7 6 7 8 8 6 5 8 9 8 7 7 7 7 7 6 5 6 6 5 5 5 6 6 7 6 5 6 12 12 12 12 7 6 9 9 9 9 7 9 9 6 4
7 6 7 8 9 7 7 8 8 8 7 7 8 7 6 6 6 5 5 5 6 6 7 7 7 6 5 5 5 5 6 8 7 6 7 9 8 6 6 6 5 4 4
7 6 7 8 9 9 8 8 7 6 7 7 7 7 6 6 6 6 6 7 7 8 8 7 7 7 7 8 9 6 5 5 6 4 3 3 3 4 4 3 3 3 3
7 7 7 8 9 8 9 8 7 6 6 7 7 6 5 5 5 6 6 9 11 13 14 13 11 9 11 11 11 11 11 10 9 5 4 5 5 5 5 5 4 4 4
Wind_Direction
224 168 159 144 122 112 103 95 80 58 57 48 48 36 17 359 6 23 23 24 24 25 28 21 15 13 1 342 335 331 328 331 339 338 327 316 297 287 285 294 306 336 331
202 180 166 150 154 160 135 111 100 77 66 59 70 94 52 346 340 5 18 19 19 19 26 26 13 8 355 351 350 353 338 335 5 3 341 330 326 328 310 310 303 294 344
216 210 194 197 188 196 193 178 143 99 80 72 59 36 39 17 4 359 358 359 6 12 21 20 13 10 4 351 344 342 343 326 329 342 305 311 291 312 312 316 328 329 326
221 211 204 205 210 216 197 176 140 109 97 104 96 88 90 275 282 299 315 335 354 2 8 11 9 7 359 347 331 339 318 314 312 311 275 252 254 279 304 305 316 324 305
222 218 212 208 207 194 181 187 148 128 117 114 133 135 259 255 288 314 325 334 341 349 351 353 356 351 343 329 328 331 329 301 285 290 296 287 280 248 260 287 301 312 291
236 234 227 194 200 181 172 179 159 165 132 136 164 203 238 264 296 311 310 313 317 323 332 339 338 331 324 314 312 313 316 307 295 288 282 273 268 262 254 269 287 292 289
237 249 239 228 234 225 220 213 183 211 193 201 238 241 244 247 262 276 277 287 298 301 308 319 313 309 304 302 305 309 308 302 297 283 275 270 267 265 256 261 277 280 285
265 258 252 238 242 247 239 230 236 243 226 226 251 252 248 243 256 259 258 260 261 269 281 289 294 297 301 305 309 302 297 297 287 288 282 274 274 266 256 252 266 286 286
298 287 294 274 256 260 249 233 234 249 245 234 239 249 247 243 254 261 253 255 257 267 268 275 286 293 295 296 299 293 291 289 279 278 284 284 284 279 269 260 249 257 279
319 302 299 290 278 261 258 256 240 243 246 240 235 247 246 247 250 252 254 252 257 262 267 270 276 284 288 290 290 287 286 287 287 283 289 290 291 289 284 273 265 252 253
302 291 287 286 289 296 286 268 264 260 260 252 245 248 251 248 250 252 255 252 254 257 257 259 265 271 275 279 276 276 280 278 285 288 284 284 285 285 287 282 272 264 252
316 302 295 306 312 303 296 283 272 264 259 251 245 249 253 250 250 254 256 253 253 253 251 254 258 263 264 263 260 268 271 267 271 274 274 277 283 282 282 277 270 266 258
337 331 326 316 306 301 296 290 281 271 268 252 244 249 250 247 249 253 256 253 252 254 252 249 252 257 259 259 257 255 258 258 262 263 261 265 264 270 272 268 266 268 272
321 321 315 305 297 294 291 289 286 277 273 261 250 250 249 245 247 250 251 251 249 251 250 249 250 252 254 254 255 255 256 259 261 259 258 258 251 254 260 265 260 263 269
306 307 302 298 299 298 294 290 286 281 272 265 259 256 255 250 248 250 251 250 248 250 249 251 255 254 251 248 247 248 252 255 263 264 261 259 257 258 258 263 258 256 261
286 293 298 298 296 293 290 290 286 281 271 264 263 264 262 257 252 251 249 248 250 251 249 248 252 254 255 259 257 251 246 250 255 262 264 263 260 262 268 268 262 254 253
275 282 285 282 282 281 280 281 280 281 271 265 267 267 261 260 256 254 250 249 249 247 248 249 248 252 256 260 262 255 245 243 248 252 257 265 264 265 260 267 270 266 261
267 274 276 279 280 278 283 284 284 279 272 269 268 265 260 260 259 250 248 248 245 245 248 251 248 251 258 261 262 259 245 241 245 245 245 250 258 255 251 252 260 261 265
259 263 266 272 280 283 285 291 291 284 276 271 268 263 257 258 258 254 251 247 244 248 249 252 248 250 261 261 260 257 243 246 250 246 241 243 249 257 254 244 247 262 269
271 275 279 279 280 282 286 289 289 286 278 273 270 266 256 254 256 256 254 248 243 249 253 256 250 247 255 260 258 252 238 248 255 253 246 248 251 256 255 237 232 248 258
280 282 284 281 277 281 286 284 285 279 275 276 274 269 260 256 256 258 253 248 247 253 254 257 258 251 252 260 258 252 236 238 248 252 251 247 254 256 253 246 236 244 247
289 287 285 285 284 281 278 282 282 280 284 281 276 273 268 264 262 256 257 246 240 250 256 260 268 260 254 255 256 253 249 247 243 249 250 248 254 255 255 252 245 245 245
283 284 281 286 288 280 267 275 282 289 291 287 281 279 276 268 261 255 257 255 242 246 253 252 261 267 256 253 256 257 256 254 251 249 251 257 256 256 256 251 246 241 229
280 281 282 284 287 284 276 268 279 287 287 284 283 279 276 275 267 257 249 247 245 245 249 250 255 262 262 253 247 246 253 254 255 253 249 253 255 251 244 245 245 231 219
279 274 273 277 281 287 287 283 282 283 282 281 280 277 269 269 271 264 249 244 241 237 241 245 245 251 261 256 251 251 248 242 241 246 242 239 238 241 240 234 232 224 220
279 280 279 279 283 287 289 288 283 275 275 283 282 277 274 271 267 273 280 260 252 258 253 251 250 252 254 263 260 257 256 256 251 250 239 238 234 236 236 234 231 226 224
Height
1508 1510 1511 1513 1514 1515 1515 1515 1516 1516 1516 1517 1517 1517 1517 1517 1517 1516 1516 1516 1516 1515 1514 1513 1513 1512 1511 1511 1510 1509 1508 1508 1507 1506 1505 1504 1504 1503 1503 1503 1502 1502 1502
1507 1509 1511 1512 1513 1514 1514 1515 1515 1516 1515 1516 1516 1516 1516 1516 1516 1515 1515 1514 1514 1513 1512 1511 1511 1510 1509 1508 1507 1506 1506 1505 1505 1504 1502 1501 1501 1500 1500 1499 1499 1498 1498
1506 1508 1509 1511 1512 1513 1514 1514 1515 1515 1515 1515 1515 1515 1515 1515 1515 1515 1514 1513 1513 1512 1511 1510 1509 1508 1507 1506 1505 1504 1503 1503 1502 1502 1502 1501 1499 1498 1497 1496 1496 1495 1495
1504 1506 1508 1509 1510 1512 1512 1513 1513 1513 1514 1514 1514 1514 1514 1514 1513 1513 1512 1511 1511 1510 1509 1508 1507 1506 1505 1504 1503 1502 1502 1501 1500 1500 1499 1500 1498 1497 1494 1494 1493 1493 1491
1503 1504 1506 1508 1509 1510 1511 1512 1512 1512 1512 1512 1512 1512 1512 1511 1511 1510 1510 1509 1508 1507 1507 1506 1505 1504 1503 1502 1501 1500 1499 1498 1498 1497 1496 1496 1495 1495 1493 1490 1489 1489 1488
1501 1503 1505 1506 1507 1508 1509 1510 1510 1510 1510 1510 1510 1510 1510 1509 1508 1508 1507 1506 1506 1505 1504 1503 1502 1501 1500 1499 1498 1497 1497 1496 1495 1494 1494 1493 1492 1491 1490 1488 1485 1484 1483
1500 1501 1502 1504 1505 1506 1507 1508 1508 1508 1508 1509 1508 1508 1507 1506 1506 1505 1505 1504 1503 1502 1502 1501 1500 1498 1497 1496 1495 1494 1493 1493 1492 1491 1490 1490 1489 1488 1487 1485 1483 1480 1479
1498 1499 1501 1502 1503 1504 1505 1505 1505 1506 1506 1506 1506 1506 1505 1504 1504 1503 1502 1501 1500 1499 1499 1498 1497 1496 1494 1493 1492 1491 1490 1489 1488 1488 1487 1486 1485 1484 1484 1482 1481 1477 1475
1498 1499 1500 1500 1501 1502 1503 1503 1503 1503 1503 1503 1503 1503 1502 1502 1501 1500 1499 1498 1497 1497 1496 1495 1494 1492 1491 1490 1489 1488 1487 1486 1485 1484 1483 1482 1481 1480 1479 1478 1477 1476 1472
1498 1499 1499 1500 1500 1501 1501 1501 1501 1501 1501 1501 1500 1500 1499 1499 1498 1497 1496 1495 1494 1494 1493 1491 1490 1489 1488 1487 1485 1484 1483 1482 1481 1480 1479 1478 1477 1476 1475 1474 1473 1472 1470
1498 1498 1498 1499 1499 1499 1499 1499 1498 1498 1498 1498 1497 1497 1496 1495 1494 1493 1492 1491 1491 1490 1489 1488 1487 1485 1484 1483 1482 1481 1479 1478 1477 1476 1475 1474 1473 1472 1471 1470 1468 1467 1466
1497 1497 1497 1497 1496 1496 1496 1496 1495 1495 1494 1494 1494 1493 1493 1492 1491 1490 1489 1488 1487 1486 1485 1484 1483 1481 1480 1479 1478 1477 1476 1474 1473 1472 1471 1470 1469 1467 1466 1465 1464 1463 1461
1495 1495 1495 1495 1494 1494 1493 1492 1492 1491 1491 1490 1490 1489 1488 1488 1487 1486 1485 1484 1482 1481 1480 1479 1478 1477 1476 1475 1474 1472 1471 1470 1469 1468 1467 1465 1464 1463 1462 1460 1459 1458 1456
1494 1494 1493 1493 1492 1491 1490 1489 1489 1488 1487 1486 1485 1485 1484 1483 1482 1481 1480 1479 1478 1477 1476 1475 1474 1473 1471 1470 1469 1468 1467 1466 1464 1463 1462 1461 1460 1458 1457 1456 1454 1453 1451
1492 1491 1491 1490 1489 1488 1487 1486 1485 1484 1483 1482 1481 1480 1479 1478 1477 1476 1475 1474 1473 1472 1471 1469 1468 1468 1467 1466 1464 1463 1462 1461 1459 1458 1457 1456 1455 1454 1452 1451 1450 1449 1447
1490 1489 1488 1487 1486 1485 1484 1482 1481 1480 1479 1477 1476 1475 1474 1472 1471 1470 1469 1468 1467 1466 1465 1464 1463 1462 1461 1460 1459 1458 1457 1455 1454 1453 1452 1451 1450 1449 1447 1446 1445 1444 1443
1487 1486 1485 1484 1483 1482 1480 1478 1477 1475 1474 1472 1471 1469 1468 1467 1465 1464 1463 1462 1461 1460 1459 1458 1457 1456 1456 1455 1454 1452 1451 1450 1449 1448 1446 1445 1444 1443 1442 1441 1440 1439 1438
1484 1483 1482 1481 1480 1478 1476 1474 1472 1470 1469 1467 1465 1464 1462 1461 1460 1458 1457 1456 1455 1454 1453 1452 1451 1450 1449 1449 1448 1446 1445 1444 1443 1442 1441 1440 1439 1438 1437 1435 1434 1433 1432
1481 1480 1479 1477 1475 1474 1472 1470 1467 1465 1463 1461 1459 1458 1457 1455 1453 1452 1451 1450 1449 1447 1446 1446 1445 1444 1443 1443 1442 1440 1439 1437 1436 1436 1435 1434 1433 1432 1431 1430 1429 1428 1427
1478 1476 1474 1473 1471 1469 1467 1465 1462 1460 1458 1456 1454 1452 1451 1449 1447 1446 1445 1444 1442 1441 1440 1439 1439 1438 1437 1436 1435 1434 1432 1431 1430 1430 1429 1428 1427 1427 1426 1425 1423 1422 1422
1473 1472 1470 1468 1466 1464 1462 1459 1457 1455 1453 1451 1448 1447 1445 1443 1442 1440 1439 1438 1436 1435 1434 1433 1432 1432 1431 1430 1429 1428 1426 1425 1424 1423 1422 1422 1422 1421 1420 1419 1418 1418 1417
1469 1467 1465 1463 1461 1459 1457 1454 1452 1450 1447 1445 1443 1441 1439 1438 1436 1434 1433 1432 1430 1429 1428 1427 1426 1425 1425 1424 1423 1422 1421 1420 1418 1417 1417 1416 1416 1415 1414 1413 1413 1413 1412
1464 1462 1460 1457 1456 1454 1452 1449 1446 1444 1441 1439 1437 1435 1433 1432 1430 1429 1427 1426 1424 1423 1421 1420 1419 1418 1418 1417 1417 1416 1415 1414 1413 1411 1411 1410 1410 1409 1408 1408 1408 1407 1407
1459 1457 1454 1452 1450 1449 1446 1444 1441 1439 1436 1434 1431 1430 1428 1426 1425 1423 1421 1420 1418 1417 1415 1414 1413 1412 1411 1411 1410 1409 1409 1408 1407 1406 1405 1405 1404 1403 1403 1402 1402 1402 1401
1454 1452 1449 1447 1445 1443 1441 1439 1436 1433 1431 1428 1426 1424 1422 1420 1418 1417 1415 1413 1412 1411 1410 1408 1408 1406 1405 1405 1405 1404 1402 1402 1401 1400 1399 1398 1398 1397 1397 1397 1396 1396 1396
1448 1446 1444 1442 1440 1437 1435 1433 1431 1428 1425 1423 1421 1419 1417 1415 1412 1410 1408 1407 1406 1405 1404 1402 1402 1400 1400 1399 1398 1397 1397 1396 1395 1394 1393 1392 1392 1392 1391 1391 1391 1391 1391